| time (UTC) | temp F | wind direction | speed MPH | gust MPH | rain 1hr in | rain 24hr in | rain mn in | humidity % | barometer mb |
| 20260902215618 | 72 | 49 | 0.0 | 0.0 | 0.00 | 0.00 | 0.00 | 44 | 1013.9 |
| 20260902215121 | 72 | 49 | 0.0 | 0.0 | 0.00 | 0.00 | 0.00 | 44 | 1013.9 |
| 20260902214618 | 72 | 47 | 0.0 | 0.0 | 0.00 | 0.00 | 0.00 | 43 | 1013.9 |
| 20260902214119 | 72 | 47 | 0.0 | 0.0 | 0.00 | 0.00 | 0.00 | 44 | 1014.2 |
| 20260902213618 | 72 | 45 | 0.0 | 0.0 | 0.00 | 0.00 | 0.00 | 43 | 1014.2 |
| 20260902213119 | 73 | 44 | 0.0 | 0.0 | 0.00 | 0.00 | 0.00 | 43 | 1014.2 |
| 20260902212618 | 73 | 44 | 0.0 | 0.0 | 0.00 | 0.00 | 0.00 | 43 | 1014.2 |
| 20260902212119 | 73 | 45 | 0.0 | 0.0 | 0.00 | 0.00 | 0.00 | 43 | 1014.2 |
| 20260902211618 | 72 | 52 | 0.0 | 0.0 | 0.00 | 0.00 | 0.00 | 44 | 1014.2 |
| 20260902211119 | 73 | 67 | 0.0 | 0.0 | 0.00 | 0.00 | 0.00 | 45 | 1014.2 |
| 20260902210619 | 73 | 93 | 0.0 | 0.0 | 0.00 | 0.00 | 0.00 | 45 | 1014.2 |
| 20260902210118 | 73 | 91 | 0.0 | 0.0 | 0.00 | 0.00 | 0.00 | 46 | 1014.2 |
| 20260902205619 | 73 | 106 | 0.0 | 0.0 | 0.00 | 0.00 | 0.00 | 46 | 1014.2 |
| 20260902205118 | 73 | 53 | 0.0 | 0.0 | 0.00 | 0.00 | 0.00 | 50 | 1014.2 |
| 20260902204618 | 73 | 63 | 1.0 | 1.0 | 0.00 | 0.00 | 0.00 | 50 | 1014.2 |
| 20260902204119 | 73 | 260 | 0.0 | 0.0 | 0.00 | 0.00 | 0.00 | 53 | 1014.2 |
| 20260902203618 | 73 | 260 | 0.0 | 0.0 | 0.00 | 0.00 | 0.00 | 53 | 1014.2 |
| 20260902203118 | 73 | 260 | 0.0 | 0.0 | 0.00 | 0.00 | 0.00 | 53 | 1014.2 |
| 20260902202620 | 74 | 260 | 0.0 | 0.0 | 0.00 | 0.00 | 0.00 | 52 | 1014.2 |
| 20260902202119 | 74 | 260 | 0.0 | 0.0 | 0.00 | 0.00 | 0.00 | 52 | 1013.9 |
| 20260902201620 | 75 | 260 | 0.0 | 0.0 | 0.00 | 0.00 | 0.00 | 51 | 1014.2 |
| 20260902201119 | 75 | 260 | 0.0 | 0.0 | 0.00 | 0.00 | 0.00 | 49 | 1014.2 |
| 20260902200618 | 76 | 260 | 0.0 | 0.0 | 0.00 | 0.00 | 0.00 | 48 | 1014.2 |
| 20260902200118 | 77 | 260 | 0.0 | 0.0 | 0.00 | 0.00 | 0.00 | 47 | 1014.2 |
| 20260902195618 | 77 | 260 | 0.0 | 0.0 | 0.00 | 0.00 | 0.00 | 44 | 1014.2 |
| 20260902195118 | 77 | 260 | 0.0 | 0.0 | 0.00 | 0.00 | 0.00 | 44 | 1014.2 |
| 20260902194618 | 78 | 260 | 1.0 | 1.0 | 0.00 | 0.00 | 0.00 | 43 | 1014.2 |
| 20260902194118 | 78 | 265 | 0.0 | 0.0 | 0.00 | 0.00 | 0.00 | 43 | 1014.2 |
| 20260902193619 | 78 | 265 | 0.0 | 0.0 | 0.00 | 0.00 | 0.00 | 43 | 1014.2 |
| 20260902193118 | 78 | 265 | 0.0 | 0.0 | 0.00 | 0.00 | 0.00 | 43 | 1014.2 |
| 20260902192618 | 78 | 266 | 0.0 | 0.0 | 0.00 | 0.00 | 0.00 | 43 | 1014.2 |
| 20260902192118 | 78 | 304 | 0.0 | 0.0 | 0.00 | 0.00 | 0.00 | 43 | 1014.6 |
| 20260902191620 | 78 | 257 | 0.0 | 1.0 | 0.00 | 0.00 | 0.00 | 43 | 1014.6 |
| 20260902191118 | 78 | 264 | 2.0 | 2.0 | 0.00 | 0.00 | 0.00 | 43 | 1014.2 |
| 20260902190618 | 78 | 280 | 0.0 | 0.0 | 0.00 | 0.00 | 0.00 | 43 | 1014.6 |
| 20260902190118 | 78 | 272 | 0.0 | 0.0 | 0.00 | 0.00 | 0.00 | 43 | 1014.6 |
| 20260902185618 | 78 | 255 | 0.0 | 0.0 | 0.00 | 0.00 | 0.00 | 44 | 1014.2 |
| 20260902185119 | 78 | 253 | 0.0 | 0.0 | 0.00 | 0.00 | 0.00 | 44 | 1014.6 |
| 20260902184619 | 78 | 258 | 1.0 | 1.0 | 0.00 | 0.00 | 0.00 | 44 | 1014.2 |
| 20260902184119 | 79 | 252 | 2.0 | 2.0 | 0.00 | 0.00 | 0.00 | 43 | 1014.6 |
| 20260902183619 | 79 | 289 | 3.0 | 3.0 | 0.00 | 0.00 | 0.00 | 44 | 1014.6 |
| 20260902183120 | 79 | 270 | 1.0 | 1.0 | 0.00 | 0.00 | 0.00 | 45 | 1014.2 |
| 20260902182620 | 79 | 261 | 1.0 | 1.0 | 0.00 | 0.00 | 0.00 | 45 | 1014.2 |
| 20260902182118 | 79 | 259 | 1.0 | 1.0 | 0.00 | 0.00 | 0.00 | 46 | 1014.6 |
| 20260902181618 | 79 | 277 | 4.0 | 5.0 | 0.00 | 0.00 | 0.00 | 47 | 1014.6 |
| 20260902181118 | 79 | 255 | 4.0 | 6.0 | 0.00 | 0.00 | 0.00 | 47 | 1014.6 |
| 20260902180619 | 79 | 284 | 3.0 | 3.0 | 0.00 | 0.00 | 0.00 | 48 | 1014.2 |
| 20260902180122 | 79 | 250 | 3.0 | 3.0 | 0.00 | 0.00 | 0.00 | 48 | 1014.2 |
| 20260902175619 | 79 | 262 | 2.0 | 1.0 | 0.00 | 0.00 | 0.00 | 50 | 1014.2 |
| 20260902175119 | 78 | 282 | 2.0 | 2.0 | 0.00 | 0.00 | 0.00 | 52 | 1014.2 |
| 20260902174619 | 78 | 268 | 2.0 | 3.0 | 0.00 | 0.00 | 0.00 | 54 | 1014.2 |
| 20260902174119 | 78 | 264 | 1.0 | 1.0 | 0.00 | 0.00 | 0.00 | 55 | 1013.9 |
| 20260902173618 | 78 | 293 | 2.0 | 3.0 | 0.00 | 0.00 | 0.00 | 56 | 1014.2 |
| 20260902173120 | 78 | 276 | 3.0 | 5.0 | 0.00 | 0.00 | 0.00 | 56 | 1014.2 |
| 20260902172618 | 78 | 277 | 2.0 | 2.0 | 0.00 | 0.00 | 0.00 | 57 | 1014.2 |
| 20260902172119 | 79 | 302 | 4.0 | 5.0 | 0.00 | 0.00 | 0.00 | 57 | 1013.9 |
| 20260902171618 | 78 | 264 | 3.0 | 5.0 | 0.00 | 0.00 | 0.00 | 57 | 1014.2 |
| 20260902171119 | 78 | 261 | 1.0 | 1.0 | 0.00 | 0.00 | 0.00 | 58 | 1014.2 |
| 20260902170619 | 78 | 252 | 1.0 | 1.0 | 0.00 | 0.00 | 0.00 | 59 | 1013.9 |
| 20260902170119 | 78 | 257 | 1.0 | 2.0 | 0.00 | 0.00 | 0.00 | 61 | 1013.9 |
| 20260902165619 | 78 | 254 | 3.0 | 3.0 | 0.00 | 0.00 | 0.00 | 62 | 1013.9 |
| 20260902165119 | 78 | 279 | 2.0 | 2.0 | 0.00 | 0.00 | 0.00 | 62 | 1013.9 |
| 20260902164619 | 78 | 244 | 2.0 | 2.0 | 0.00 | 0.00 | 0.00 | 62 | 1013.9 |
| 20260902164118 | 78 | 274 | 3.0 | 3.0 | 0.00 | 0.00 | 0.00 | 62 | 1013.9 |
| 20260902163619 | 78 | 294 | 0.0 | 0.0 | 0.00 | 0.00 | 0.00 | 62 | 1013.9 |
| 20260902163119 | 78 | 304 | 1.0 | 1.0 | 0.00 | 0.00 | 0.00 | 62 | 1013.5 |
| 20260902162619 | 78 | 256 | 3.0 | 3.0 | 0.00 | 0.00 | 0.00 | 62 | 1013.9 |
| 20260902162118 | 79 | 310 | 4.0 | 5.0 | 0.00 | 0.00 | 0.00 | 62 | 1013.9 |
| 20260902161619 | 79 | 268 | 6.0 | 7.0 | 0.00 | 0.00 | 0.00 | 61 | 1013.5 |
| 20260902161118 | 80 | 258 | 3.0 | 3.0 | 0.00 | 0.00 | 0.00 | 60 | 1013.5 |
| 20260902160618 | 80 | 249 | 5.0 | 6.0 | 0.00 | 0.00 | 0.00 | 59 | 1013.5 |
| 20260902160120 | 80 | 285 | 3.0 | 3.0 | 0.00 | 0.00 | 0.00 | 58 | 1013.5 |
| 20260902155618 | 81 | 293 | 2.0 | 5.0 | 0.00 | 0.00 | 0.00 | 56 | 1013.5 |
| 20260902155118 | 82 | 285 | 4.0 | 6.0 | 0.00 | 0.00 | 0.00 | 55 | 1013.2 |
| 20260902154621 | 82 | 303 | 5.0 | 6.0 | 0.00 | 0.00 | 0.00 | 54 | 1013.5 |
| 20260902154119 | 83 | 267 | 2.0 | 3.0 | 0.00 | 0.00 | 0.00 | 52 | 1013.5 |
| 20260902153619 | 83 | 246 | 4.0 | 5.0 | 0.00 | 0.00 | 0.00 | 51 | 1013.5 |
| 20260902153119 | 85 | 272 | 7.0 | 8.0 | 0.00 | 0.00 | 0.00 | 49 | 1013.5 |
| 20260902152619 | 85 | 254 | 1.0 | 2.0 | 0.00 | 0.00 | 0.00 | 48 | 1013.5 |
| 20260902152120 | 85 | 282 | 5.0 | 7.0 | 0.00 | 0.00 | 0.00 | 47 | 1013.5 |
| 20260902151620 | 86 | 276 | 6.0 | 7.0 | 0.00 | 0.00 | 0.00 | 46 | 1013.5 |
| 20260902151121 | 87 | 291 | 7.0 | 8.0 | 0.00 | 0.00 | 0.00 | 43 | 1013.5 |
| 20260902150620 | 87 | 43 | 3.0 | 3.0 | 0.00 | 0.00 | 0.00 | 42 | 1013.5 |
| 20260902150119 | 87 | 279 | 1.0 | 1.0 | 0.00 | 0.00 | 0.00 | 41 | 1013.5 |
| 20260902145619 | 87 | 278 | 0.0 | 0.0 | 0.00 | 0.00 | 0.00 | 40 | 1013.5 |
| 20260902145118 | 87 | 279 | 4.0 | 5.0 | 0.00 | 0.00 | 0.00 | 41 | 1013.5 |
| 20260902144619 | 88 | 244 | 1.0 | 1.0 | 0.00 | 0.00 | 0.00 | 40 | 1013.5 |
| 20260902144119 | 88 | 234 | 1.0 | 1.0 | 0.00 | 0.00 | 0.00 | 40 | 1013.5 |
| 20260902143619 | 89 | 20 | 3.0 | 3.0 | 0.00 | 0.00 | 0.00 | 38 | 1013.5 |
| 20260902143118 | 89 | 257 | 3.0 | 6.0 | 0.00 | 0.00 | 0.00 | 38 | 1013.5 |
| 20260902142618 | 89 | 266 | 7.0 | 9.0 | 0.00 | 0.00 | 0.00 | 36 | 1013.5 |
| 20260902142118 | 90 | 270 | 4.0 | 6.0 | 0.00 | 0.00 | 0.00 | 35 | 1013.5 |
| 20260902141618 | 90 | 239 | 3.0 | 5.0 | 0.00 | 0.00 | 0.00 | 35 | 1013.5 |
| 20260902141119 | 90 | 286 | 3.0 | 3.0 | 0.00 | 0.00 | 0.00 | 35 | 1013.5 |
| 20260902140618 | 90 | 282 | 5.0 | 7.0 | 0.00 | 0.00 | 0.00 | 36 | 1013.5 |
| 20260902140120 | 90 | 240 | 4.0 | 7.0 | 0.00 | 0.00 | 0.00 | 35 | 1013.5 |
| 20260902135618 | 91 | 260 | 3.0 | 3.0 | 0.00 | 0.00 | 0.00 | 35 | 1013.5 |
| 20260902135119 | 91 | 209 | 4.0 | 5.0 | 0.00 | 0.00 | 0.00 | 36 | 1013.5 |
| 20260902134618 | 91 | 247 | 4.0 | 5.0 | 0.00 | 0.00 | 0.00 | 37 | 1013.5 |
| 20260902134118 | 91 | 259 | 5.0 | 6.0 | 0.00 | 0.00 | 0.00 | 35 | 1013.5 |
| 20260902133618 | 91 | 287 | 2.0 | 3.0 | 0.00 | 0.00 | 0.00 | 38 | 1013.5 |
| 20260902133120 | 91 | 76 | 2.0 | 2.0 | 0.00 | 0.00 | 0.00 | 37 | 1013.5 |
| 20260902132620 | 91 | 91 | 3.0 | 3.0 | 0.00 | 0.00 | 0.00 | 33 | 1013.5 |
| 20260902132118 | 91 | 319 | 3.0 | 7.0 | 0.00 | 0.00 | 0.00 | 33 | 1013.5 |
| 20260902131618 | 91 | 179 | 2.0 | 3.0 | 0.00 | 0.00 | 0.00 | 35 | 1013.5 |
| 20260902131119 | 92 | 328 | 2.0 | 2.0 | 0.00 | 0.00 | 0.00 | 34 | 1013.5 |
| 20260902130619 | 92 | 287 | 4.0 | 6.0 | 0.00 | 0.00 | 0.00 | 29 | 1013.5 |
| 20260902130119 | 91 | 271 | 3.0 | 3.0 | 0.00 | 0.00 | 0.00 | 32 | 1013.5 |
| 20260902125618 | 93 | 251 | 3.0 | 5.0 | 0.00 | 0.00 | 0.00 | 34 | 1013.5 |
| 20260902125119 | 91 | 319 | 1.0 | 1.0 | 0.00 | 0.00 | 0.00 | 31 | 1013.5 |
| 20260902124618 | 91 | 243 | 8.0 | 10.0 | 0.00 | 0.00 | 0.00 | 35 | 1013.5 |
| 20260902124118 | 91 | 278 | 4.0 | 5.0 | 0.00 | 0.00 | 0.00 | 37 | 1013.5 |
| 20260902123618 | 92 | 319 | 4.0 | 5.0 | 0.00 | 0.00 | 0.00 | 34 | 1013.5 |
| 20260902123119 | 92 | 251 | 3.0 | 5.0 | 0.00 | 0.00 | 0.00 | 35 | 1013.5 |
| 20260902122619 | 91 | 291 | 2.0 | 2.0 | 0.00 | 0.00 | 0.00 | 37 | 1013.5 |
| 20260902122119 | 92 | 273 | 4.0 | 5.0 | 0.00 | 0.00 | 0.00 | 37 | 1013.5 |
| 20260902121619 | 92 | 251 | 3.0 | 3.0 | 0.00 | 0.00 | 0.00 | 34 | 1013.5 |
| 20260902121120 | 92 | 317 | 6.0 | 7.0 | 0.00 | 0.00 | 0.00 | 31 | 1013.5 |
| 20260902120619 | 93 | 248 | 3.0 | 3.0 | 0.00 | 0.00 | 0.00 | 33 | 1013.5 |
| 20260902120119 | 94 | 149 | 1.0 | 1.0 | 0.00 | 0.00 | 0.00 | 28 | 1013.5 |
| 20260902115618 | 93 | 270 | 6.0 | 8.0 | 0.00 | 0.00 | 0.00 | 28 | 1013.5 |
| 20260902115119 | 93 | 275 | 5.0 | 6.0 | 0.00 | 0.00 | 0.00 | 32 | 1013.9 |
| 20260902114619 | 94 | 225 | 4.0 | 7.0 | 0.00 | 0.00 | 0.00 | 25 | 1013.5 |
| 20260902114119 | 95 | 277 | 3.0 | 2.0 | 0.00 | 0.00 | 0.00 | 22 | 1013.9 |
| 20260902113618 | 94 | 357 | 1.0 | 1.0 | 0.00 | 0.00 | 0.00 | 23 | 1013.9 |
| 20260902113119 | 94 | 252 | 4.0 | 5.0 | 0.00 | 0.00 | 0.00 | 22 | 1013.9 |
| 20260902112618 | 96 | 297 | 5.0 | 5.0 | 0.00 | 0.00 | 0.00 | 19 | 1013.9 |
| 20260902112118 | 95 | 237 | 2.0 | 3.0 | 0.00 | 0.00 | 0.00 | 21 | 1013.9 |
| 20260902111618 | 95 | 280 | 4.0 | 7.0 | 0.00 | 0.00 | 0.00 | 22 | 1014.2 |
| 20260902111118 | 93 | 263 | 2.0 | 3.0 | 0.00 | 0.00 | 0.00 | 21 | 1014.2 |
| 20260902110620 | 94 | 257 | 1.0 | 1.0 | 0.00 | 0.00 | 0.00 | 20 | 1014.2 |
| 20260902110119 | 94 | 152 | 0.0 | 0.0 | 0.00 | 0.00 | 0.00 | 20 | 1014.2 |
| 20260902105619 | 94 | 173 | 1.0 | 2.0 | 0.00 | 0.00 | 0.00 | 21 | 1014.6 |
| 20260902105118 | 94 | 208 | 1.0 | 1.0 | 0.00 | 0.00 | 0.00 | 20 | 1014.2 |
| 20260902104619 | 95 | 251 | 5.0 | 6.0 | 0.00 | 0.00 | 0.00 | 20 | 1014.2 |
| 20260902104118 | 95 | 280 | 2.0 | 3.0 | 0.00 | 0.00 | 0.00 | 20 | 1014.6 |
| 20260902103618 | 95 | 14 | 2.0 | 2.0 | 0.00 | 0.00 | 0.00 | 19 | 1014.2 |
| 20260902103118 | 95 | 85 | 2.0 | 2.0 | 0.00 | 0.00 | 0.00 | 19 | 1014.2 |
| 20260902102618 | 93 | 111 | 1.0 | 1.0 | 0.00 | 0.00 | 0.00 | 20 | 1014.2 |
| 20260902102118 | 92 | 254 | 0.0 | 0.0 | 0.00 | 0.00 | 0.00 | 21 | 1014.6 |
| 20260902101619 | 93 | 101 | 1.0 | 1.0 | 0.00 | 0.00 | 0.00 | 20 | 1014.6 |
| 20260902101119 | 94 | 257 | 1.0 | 1.0 | 0.00 | 0.00 | 0.00 | 20 | 1014.9 |
| 20260902100618 | 93 | 95 | 1.0 | 1.0 | 0.00 | 0.00 | 0.00 | 21 | 1014.6 |
| 20260902100118 | 93 | 115 | 0.0 | 0.0 | 0.00 | 0.00 | 0.00 | 21 | 1014.6 |
| 20260902095618 | 93 | 91 | 2.0 | 1.0 | 0.00 | 0.00 | 0.00 | 21 | 1014.6 |
| 20260902095118 | 93 | 86 | 1.0 | 1.0 | 0.00 | 0.00 | 0.00 | 21 | 1014.9 |
| 20260902094618 | 92 | 112 | 1.0 | 1.0 | 0.00 | 0.00 | 0.00 | 22 | 1014.9 |
| 20260902094118 | 94 | 101 | 3.0 | 2.0 | 0.00 | 0.00 | 0.00 | 22 | 1014.9 |
| 20260902093620 | 93 | 104 | 2.0 | 2.0 | 0.00 | 0.00 | 0.00 | 22 | 1014.9 |
| 20260902093119 | 92 | 185 | 2.0 | 2.0 | 0.00 | 0.00 | 0.00 | 22 | 1014.9 |
| 20260902092619 | 91 | 12 | 1.0 | 1.0 | 0.00 | 0.00 | 0.00 | 23 | 1014.9 |
| 20260902092119 | 91 | 235 | 5.0 | 6.0 | 0.00 | 0.00 | 0.00 | 23 | 1014.9 |
| 20260902091618 | 91 | 271 | 2.0 | 3.0 | 0.00 | 0.00 | 0.00 | 24 | 1015.2 |
| 20260902091118 | 92 | 99 | 3.0 | 3.0 | 0.00 | 0.00 | 0.00 | 23 | 1015.2 |
| 20260902090618 | 92 | 95 | 1.0 | 1.0 | 0.00 | 0.00 | 0.00 | 22 | 1014.9 |
| 20260902090119 | 91 | 259 | 2.0 | 2.0 | 0.00 | 0.00 | 0.00 | 22 | 1015.2 |
| 20260902085619 | 90 | 81 | 1.0 | 1.0 | 0.00 | 0.00 | 0.00 | 23 | 1015.2 |
| 20260902085121 | 90 | 53 | 3.0 | 3.0 | 0.00 | 0.00 | 0.00 | 22 | 1015.2 |
| 20260902084622 | 90 | 45 | 2.0 | 2.0 | 0.00 | 0.00 | 0.00 | 23 | 1015.2 |
| 20260902084120 | 91 | 103 | 0.0 | 0.0 | 0.00 | 0.00 | 0.00 | 23 | 1015.6 |
| 20260902083620 | 92 | 76 | 2.0 | 2.0 | 0.00 | 0.00 | 0.00 | 21 | 1015.6 |
| 20260902083118 | 91 | 123 | 1.0 | 1.0 | 0.00 | 0.00 | 0.00 | 23 | 1015.6 |
| 20260902082618 | 90 | 103 | 2.0 | 2.0 | 0.00 | 0.00 | 0.00 | 24 | 1015.6 |
| 20260902082118 | 89 | 32 | 1.0 | 2.0 | 0.00 | 0.00 | 0.00 | 25 | 1015.6 |
| 20260902081618 | 89 | 65 | 2.0 | 3.0 | 0.00 | 0.00 | 0.00 | 25 | 1015.6 |
| 20260902081118 | 90 | 88 | 1.0 | 1.0 | 0.00 | 0.00 | 0.00 | 25 | 1015.6 |
| 20260902080618 | 89 | 65 | 2.0 | 2.0 | 0.00 | 0.00 | 0.00 | 25 | 1015.6 |
| 20260902080118 | 89 | 85 | 2.0 | 2.0 | 0.00 | 0.00 | 0.00 | 26 | 1015.6 |
| 20260902075618 | 88 | 91 | 3.0 | 2.0 | 0.00 | 0.00 | 0.00 | 27 | 1015.9 |
| 20260902075120 | 88 | 82 | 4.0 | 5.0 | 0.00 | 0.00 | 0.00 | 26 | 1015.6 |
| 20260902074619 | 88 | 38 | 1.0 | 2.0 | 0.00 | 0.00 | 0.00 | 28 | 1015.6 |
| 20260902074118 | 88 | 58 | 2.0 | 3.0 | 0.00 | 0.00 | 0.00 | 28 | 1015.9 |
| 20260902073619 | 87 | 109 | 2.0 | 2.0 | 0.00 | 0.00 | 0.00 | 29 | 1015.6 |
| 20260902073118 | 87 | 120 | 2.0 | 2.0 | 0.00 | 0.00 | 0.00 | 29 | 1015.6 |
| 20260902072620 | 87 | 53 | 2.0 | 2.0 | 0.00 | 0.00 | 0.00 | 31 | 1015.6 |
| 20260902072119 | 87 | 113 | 2.0 | 3.0 | 0.00 | 0.00 | 0.00 | 28 | 1015.6 |
| 20260902071618 | 87 | 124 | 1.0 | 1.0 | 0.00 | 0.00 | 0.00 | 31 | 1015.6 |
| 20260902071119 | 87 | 107 | 4.0 | 5.0 | 0.00 | 0.00 | 0.00 | 32 | 1015.2 |
| 20260902070619 | 86 | 125 | 1.0 | 1.0 | 0.00 | 0.00 | 0.00 | 32 | 1015.6 |
| 20260902070118 | 87 | 77 | 4.0 | 5.0 | 0.00 | 0.00 | 0.00 | 31 | 1015.6 |
| 20260902065620 | 86 | 357 | 1.0 | 1.0 | 0.00 | 0.00 | 0.00 | 32 | 1015.6 |
| 20260902065118 | 86 | 77 | 5.0 | 6.0 | 0.00 | 0.00 | 0.00 | 33 | 1015.6 |
| 20260902064618 | 85 | 161 | 2.0 | 2.0 | 0.00 | 0.00 | 0.00 | 34 | 1015.6 |
| 20260902064118 | 85 | 45 | 2.0 | 2.0 | 0.00 | 0.00 | 0.00 | 34 | 1015.6 |
| 20260902063618 | 85 | 95 | 2.0 | 3.0 | 0.00 | 0.00 | 0.00 | 35 | 1015.6 |
| 20260902063118 | 84 | 51 | 2.0 | 2.0 | 0.00 | 0.00 | 0.00 | 35 | 1015.6 |
| 20260902062619 | 84 | 106 | 1.0 | 1.0 | 0.00 | 0.00 | 0.00 | 36 | 1015.6 |
| 20260902062119 | 84 | 119 | 3.0 | 3.0 | 0.00 | 0.00 | 0.00 | 36 | 1015.6 |
| 20260902061620 | 84 | 184 | 3.0 | 2.0 | 0.00 | 0.00 | 0.00 | 36 | 1015.2 |
| 20260902061118 | 84 | 76 | 3.0 | 6.0 | 0.00 | 0.00 | 0.00 | 36 | 1015.6 |
| 20260902060619 | 83 | 76 | 1.0 | 1.0 | 0.00 | 0.00 | 0.00 | 36 | 1015.6 |
| 20260902060119 | 83 | 74 | 1.0 | 1.0 | 0.00 | 0.00 | 0.00 | 36 | 1015.6 |
| 20260902055618 | 83 | 102 | 3.0 | 3.0 | 0.00 | 0.00 | 0.00 | 35 | 1015.6 |
| 20260902055119 | 84 | 111 | 2.0 | 3.0 | 0.00 | 0.00 | 0.00 | 37 | 1015.6 |
| 20260902054137 | 84 | 70 | 1.0 | 0.0 | 0.00 | 0.00 | 0.00 | 35 | 1015.2 |
| 20260902053619 | 84 | 76 | 2.0 | 2.0 | 0.00 | 0.00 | 0.00 | 32 | 1015.6 |
| 20260902053118 | 84 | 133 | 3.0 | 3.0 | 0.00 | 0.00 | 0.00 | 31 | 1015.2 |
| 20260902052618 | 83 | 88 | 1.0 | 1.0 | 0.00 | 0.00 | 0.00 | 31 | 1015.6 |
| 20260902052119 | 83 | 109 | 1.0 | 1.0 | 0.00 | 0.00 | 0.00 | 32 | 1015.6 |
| 20260902051618 | 82 | 110 | 1.0 | 2.0 | 0.00 | 0.00 | 0.00 | 31 | 1015.2 |
| 20260902051118 | 82 | 116 | 0.0 | 0.0 | 0.00 | 0.00 | 0.00 | 32 | 1015.2 |
| 20260902050620 | 81 | 131 | 0.0 | 1.0 | 0.00 | 0.00 | 0.00 | 32 | 1015.2 |
| 20260902050118 | 80 | 99 | 1.0 | 1.0 | 0.00 | 0.00 | 0.00 | 34 | 1014.9 |
| 20260902045619 | 80 | 116 | 1.0 | 1.0 | 0.00 | 0.00 | 0.00 | 35 | 1015.2 |
| 20260902045119 | 78 | 74 | 0.0 | 0.0 | 0.00 | 0.00 | 0.00 | 37 | 1015.2 |
| 20260902044618 | 77 | 74 | 0.0 | 0.0 | 0.00 | 0.00 | 0.00 | 38 | 1015.2 |
| 20260902044119 | 75 | 74 | 0.0 | 0.0 | 0.00 | 0.00 | 0.00 | 40 | 1015.2 |
| 20260902043619 | 74 | 75 | 0.0 | 0.0 | 0.00 | 0.00 | 0.00 | 40 | 1015.2 |
| 20260902043118 | 73 | 74 | 0.0 | 0.0 | 0.00 | 0.00 | 0.00 | 40 | 1015.2 |
| 20260902042619 | 73 | 75 | 0.0 | 0.0 | 0.00 | 0.00 | 0.00 | 41 | 1015.2 |
| 20260902042120 | 71 | 63 | 0.0 | 0.0 | 0.00 | 0.00 | 0.00 | 42 | 1015.2 |
| 20260902041621 | 70 | 62 | 0.0 | 0.0 | 0.00 | 0.00 | 0.00 | 44 | 1015.2 |
| 20260902041123 | 70 | 70 | 1.0 | 1.0 | 0.00 | 0.00 | 0.00 | 43 | 1015.2 |
| 20260902040618 | 69 | 57 | 2.0 | 2.0 | 0.00 | 0.00 | 0.00 | 44 | 1015.2 |
| 20260902040118 | 68 | 77 | 1.0 | 1.0 | 0.00 | 0.00 | 0.00 | 43 | 1015.2 |
| 20260902035619 | 67 | 83 | 0.0 | 1.0 | 0.00 | 0.00 | 0.00 | 45 | 1014.9 |
| 20260902035118 | 66 | 50 | 0.0 | 0.0 | 0.00 | 0.00 | 0.00 | 45 | 1014.9 |
| 20260902034618 | 66 | 110 | 0.0 | 0.0 | 0.00 | 0.00 | 0.00 | 44 | 1015.2 |
| 20260902034119 | 65 | 119 | 1.0 | 1.0 | 0.00 | 0.00 | 0.00 | 45 | 1014.9 |
| 20260902033618 | 65 | 121 | 0.0 | 0.0 | 0.00 | 0.00 | 0.00 | 46 | 1014.9 |
| 20260902033119 | 66 | 121 | 0.0 | 0.0 | 0.00 | 0.00 | 0.00 | 45 | 1014.9 |
| 20260902032618 | 66 | 120 | 0.0 | 0.0 | 0.00 | 0.00 | 0.00 | 43 | 1014.9 |
| 20260902032120 | 65 | 128 | 0.0 | 0.0 | 0.00 | 0.00 | 0.00 | 45 | 1014.9 |
| 20260902031621 | 65 | 128 | 0.0 | 0.0 | 0.00 | 0.00 | 0.00 | 47 | 1014.9 |
| 20260902031118 | 65 | 128 | 0.0 | 0.0 | 0.00 | 0.00 | 0.00 | 48 | 1014.9 |
| 20260902030620 | 65 | 128 | 0.0 | 0.0 | 0.00 | 0.00 | 0.00 | 48 | 1014.9 |
| 20260902030119 | 65 | 130 | 0.0 | 0.0 | 0.00 | 0.00 | 0.00 | 50 | 1014.9 |
| 20260902025619 | 66 | 130 | 0.0 | 0.0 | 0.00 | 0.00 | 0.00 | 46 | 1014.9 |
| 20260902025119 | 66 | 130 | 0.0 | 0.0 | 0.00 | 0.00 | 0.00 | 45 | 1014.9 |
| 20260902024618 | 65 | 130 | 0.0 | 0.0 | 0.00 | 0.00 | 0.00 | 47 | 1014.9 |
| 20260902024120 | 66 | 132 | 0.0 | 0.0 | 0.00 | 0.00 | 0.00 | 48 | 1014.9 |
| 20260902023620 | 66 | 132 | 0.0 | 0.0 | 0.00 | 0.00 | 0.00 | 46 | 1014.9 |
| 20260902023118 | 66 | 137 | 0.0 | 0.0 | 0.00 | 0.00 | 0.00 | 46 | 1014.9 |
| 20260902022619 | 66 | 141 | 0.0 | 0.0 | 0.00 | 0.00 | 0.00 | 44 | 1014.9 |
| 20260902022118 | 66 | 141 | 0.0 | 0.0 | 0.00 | 0.00 | 0.00 | 45 | 1014.6 |
| 20260902021618 | 66 | 141 | 0.0 | 0.0 | 0.00 | 0.00 | 0.00 | 44 | 1014.9 |
| 20260902021120 | 65 | 176 | 0.0 | 0.0 | 0.00 | 0.00 | 0.00 | 43 | 1014.9 |
| 20260902020618 | 65 | 114 | 0.0 | 0.0 | 0.00 | 0.00 | 0.00 | 47 | 1014.9 |
| 20260902020119 | 65 | 112 | 0.0 | 0.0 | 0.00 | 0.00 | 0.00 | 49 | 1014.6 |
| 20260902015619 | 64 | 112 | 0.0 | 0.0 | 0.00 | 0.00 | 0.00 | 49 | 1014.9 |
| 20260902015119 | 65 | 112 | 0.0 | 0.0 | 0.00 | 0.00 | 0.00 | 52 | 1014.9 |
| 20260902014618 | 64 | 113 | 0.0 | 0.0 | 0.00 | 0.00 | 0.00 | 53 | 1014.9 |
| 20260902014118 | 64 | 111 | 0.0 | 0.0 | 0.00 | 0.00 | 0.00 | 55 | 1014.9 |
| 20260902013621 | 64 | 111 | 0.0 | 0.0 | 0.00 | 0.00 | 0.00 | 56 | 1014.6 |
| 20260902013119 | 64 | 113 | 0.0 | 0.0 | 0.00 | 0.00 | 0.00 | 56 | 1014.6 |
| 20260902012620 | 64 | 113 | 0.0 | 0.0 | 0.00 | 0.00 | 0.00 | 55 | 1014.6 |
| 20260902012120 | 64 | 115 | 0.0 | 0.0 | 0.00 | 0.00 | 0.00 | 55 | 1014.6 |
| 20260902011619 | 64 | 115 | 0.0 | 0.0 | 0.00 | 0.00 | 0.00 | 58 | 1014.6 |
| 20260902011120 | 64 | 113 | 1.0 | 1.0 | 0.00 | 0.00 | 0.00 | 57 | 1014.6 |
| 20260902010626 | 63 | 108 | 0.0 | 0.0 | 0.00 | 0.00 | 0.00 | 60 | 1014.9 |
| 20260902010118 | 64 | 108 | 0.0 | 0.0 | 0.00 | 0.00 | 0.00 | 60 | 1014.6 |
| 20260902005618 | 64 | 108 | 0.0 | 0.0 | 0.00 | 0.00 | 0.00 | 60 | 1014.6 |
| 20260902005118 | 64 | 108 | 0.0 | 0.0 | 0.00 | 0.00 | 0.00 | 62 | 1014.9 |
| 20260902004619 | 63 | 108 | 0.0 | 0.0 | 0.00 | 0.00 | 0.00 | 63 | 1014.6 |
| 20260902004119 | 63 | 108 | 0.0 | 0.0 | 0.00 | 0.00 | 0.00 | 67 | 1014.6 |
| 20260902003618 | 63 | 108 | 0.0 | 0.0 | 0.00 | 0.00 | 0.00 | 69 | 1014.6 |
| 20260902003118 | 63 | 108 | 0.0 | 0.0 | 0.00 | 0.00 | 0.00 | 68 | 1014.6 |
| 20260902002618 | 64 | 108 | 0.0 | 0.0 | 0.00 | 0.00 | 0.00 | 70 | 1014.6 |
| 20260902002118 | 64 | 108 | 0.0 | 0.0 | 0.00 | 0.00 | 0.00 | 68 | 1014.6 |
| 20260902001618 | 64 | 108 | 0.0 | 0.0 | 0.00 | 0.00 | 0.00 | 71 | 1014.9 |
| 20260902001118 | 65 | 108 | 0.0 | 0.0 | 0.00 | 0.00 | 0.00 | 71 | 1014.6 |
| 20260902000618 | 65 | 108 | 0.0 | 0.0 | 0.00 | 0.00 | 0.00 | 72 | 1014.9 |
| 20260902000120 | 64 | 274 | 0.0 | 0.0 | 0.00 | 0.00 | 0.00 | 74 | 1014.6 |
| 20260901235618 | 64 | 274 | 0.0 | 0.0 | 0.00 | 0.00 | 0.00 | 75 | 1014.9 |
| 20260901235118 | 64 | 274 | 0.0 | 0.0 | 0.00 | 0.00 | 0.00 | 75 | 1014.9 |
| 20260901234619 | 64 | 274 | 0.0 | 0.0 | 0.00 | 0.00 | 0.00 | 74 | 1014.6 |
| 20260901234118 | 64 | 274 | 0.0 | 0.0 | 0.00 | 0.00 | 0.00 | 73 | 1014.6 |
| 20260901233618 | 65 | 275 | 0.0 | 0.0 | 0.00 | 0.00 | 0.00 | 73 | 1014.6 |
| 20260901233118 | 65 | 275 | 0.0 | 0.0 | 0.00 | 0.00 | 0.00 | 71 | 1014.6 |
| 20260901232618 | 66 | 275 | 0.0 | 0.0 | 0.00 | 0.00 | 0.00 | 72 | 1014.6 |
| 20260901232118 | 66 | 276 | 0.0 | 0.0 | 0.00 | 0.00 | 0.00 | 71 | 1014.6 |
| 20260901231618 | 66 | 276 | 0.0 | 0.0 | 0.00 | 0.00 | 0.00 | 71 | 1014.9 |
| 20260901231119 | 66 | 276 | 0.0 | 0.0 | 0.00 | 0.00 | 0.00 | 69 | 1014.6 |
| 20260901230619 | 66 | 275 | 0.0 | 0.0 | 0.00 | 0.00 | 0.00 | 70 | 1014.6 |
| 20260901230118 | 66 | 273 | 1.0 | 1.0 | 0.00 | 0.00 | 0.00 | 70 | 1014.6 |
| 20260901225618 | 66 | 280 | 0.0 | 0.0 | 0.00 | 0.00 | 0.00 | 69 | 1014.9 |
| 20260901225118 | 66 | 280 | 0.0 | 0.0 | 0.00 | 0.00 | 0.00 | 69 | 1014.9 |
| 20260901224618 | 67 | 270 | 0.0 | 0.0 | 0.00 | 0.00 | 0.00 | 72 | 1014.6 |
| 20260901224119 | 67 | 270 | 0.0 | 0.0 | 0.00 | 0.00 | 0.00 | 71 | 1014.9 |
| 20260901223618 | 67 | 270 | 0.0 | 0.0 | 0.00 | 0.00 | 0.00 | 69 | 1014.9 |
| 20260901223119 | 68 | 270 | 0.0 | 0.0 | 0.00 | 0.00 | 0.00 | 71 | 1014.6 |
| 20260901222624 | 68 | 270 | 1.0 | 0.0 | 0.00 | 0.00 | 0.00 | 71 | 1014.6 |
| 20260901222119 | 68 | 266 | 0.0 | 0.0 | 0.00 | 0.00 | 0.00 | 70 | 1014.6 |
| 20260901221619 | 68 | 265 | 0.0 | 0.0 | 0.00 | 0.00 | 0.00 | 67 | 1014.6 |
| 20260901221120 | 68 | 245 | 0.0 | 0.0 | 0.00 | 0.00 | 0.00 | 63 | 1014.6 |
| 20260901220618 | 69 | 262 | 3.0 | 2.0 | 0.00 | 0.00 | 0.00 | 60 | 1014.6 |
| 20260901220119 | 69 | 263 | 1.0 | 1.0 | 0.00 | 0.00 | 0.00 | 59 | 1014.2 |